Wetbulb
73.44 72.42 70.45 68.78 60.21 59.25 54.05 56.23 60.57 58.95 58.24 60.79 61.56 60.17 59.80 62.41 59.82 51.82 64.17 66.90 69.06 69.35 73.34 75.31 77.04 76.49 76.98 76.67 76.90 76.36 75.88 75.95 76.59 75.85 75.63 75.41 75.01 75.02 75.13 76.27 76.55 76.43 76.58 76.36 76.50 76.43 76.81 76.47 76.54
72.13 71.48 69.37 66.13 56.99 52.47 53.45 59.88 59.05 60.97 61.41 61.49 62.00 64.60 63.34 60.88 64.78 62.72 65.42 68.30 69.39 71.55 73.59 75.11 77.46 77.13 77.24 76.92 76.89 76.30 75.86 76.32 75.95 75.93 75.73 75.88 74.72 75.11 75.60 74.98 75.83 76.14 76.01 76.21 76.40 76.61 76.11 75.86 76.16
71.79 70.95 64.89 60.50 56.75 53.00 53.84 60.23 61.58 62.12 61.74 61.22 63.43 65.29 64.04 61.57 63.65 64.24 67.68 68.76 71.09 72.93 74.06 74.81 77.13 77.61 77.44 76.87 77.02 76.39 75.94 76.44 76.11 75.81 75.56 75.87 74.86 74.70 74.62 75.36 75.59 75.68 75.94 76.40 76.35 76.15 75.95 76.06 75.71
67.77 67.35 65.84 59.12 55.33 57.17 58.18 60.87 62.51 61.87 63.92 65.26 64.88 61.68 64.22 66.85 63.98 68.26 68.88 71.07 72.12 72.67 73.87 76.23 77.25 77.40 77.19 77.06 77.16 76.54 76.34 76.12 76.16 75.99 75.94 75.56 75.37 74.40 75.25 75.18 75.83 75.88 75.84 76.10 75.85 75.91 75.50 75.37 75.36
69.31 65.53 57.87 57.24 56.68 57.97 61.20 64.13 64.37 62.74 64.16 63.70 64.86 60.23 59.98 66.63 69.18 69.14 70.06 71.72 71.59 71.87 73.62 74.56 76.88 76.74 77.15 77.33 76.87 76.31 76.32 76.37 75.73 76.14 75.81 75.43 75.65 75.67 74.93 75.15 75.81 75.12 75.17 75.66 75.56 75.36 75.26 75.44 75.41
63.94 64.24 56.47 54.47 56.59 59.32 61.76 64.32 64.53 63.97 63.73 63.62 61.86 61.92 63.02 68.77 68.34 69.24 70.67 71.20 72.17 72.55 73.52 74.49 76.57 77.18 76.80 76.51 76.63 76.34 76.64 76.48 75.82 75.91 75.90 75.91 75.78 75.86 75.39 75.34 75.31 75.48 75.15 75.12 75.03 74.93 75.56 75.91 76.38
62.03 59.77 56.82 57.01 56.84 58.09 59.83 64.08 63.93 63.74 63.11 62.46 65.01 61.02 65.20 66.67 68.65 70.19 70.65 71.65 72.96 73.97 74.11 74.66 74.62 75.77 76.88 76.73 76.83 76.88 76.78 76.37 76.39 76.06 76.08 75.98 75.95 75.59 75.69 75.73 75.59 75.79 75.31 75.01 74.84 75.45 75.63 76.18 76.51
63.59 61.16 56.64 57.34 57.08 57.26 61.63 63.30 65.49 65.01 62.48 66.68 66.41 60.26 61.76 65.94 69.72 70.81 71.19 72.09 72.54 73.23 73.72 73.67 73.89 74.22 74.05 74.91 76.34 77.00 76.71 76.69 76.71 76.14 76.13 75.83 75.66 75.64 75.77 76.04 76.41 75.40 75.26 74.84 75.15 74.93 75.45 75.99 76.31
65.88 57.27 52.91 56.28 57.90 58.86 63.45 62.66 64.98 67.32 64.92 66.82 67.62 65.14 66.32 69.27 69.97 69.29 70.02 71.03 71.81 72.68 72.40 72.66 72.65 72.65 73.21 74.33 75.75 76.69 76.99 76.93 76.93 76.06 76.11 75.46 74.23 74.09 74.11 75.24 75.73 75.56 75.31 74.98 74.81 74.56 75.81 75.69 76.00
59.60 54.14 56.00 61.11 61.87 60.71 62.63 61.98 63.66 64.35 64.12 63.48 64.21 66.58 68.60 69.02 68.10 67.58 67.48 67.24 68.81 70.53 71.73 71.67 71.69 71.76 72.86 74.64 74.52 74.52 75.34 74.71 74.73 74.26 73.04 73.15 73.45 73.97 74.28 75.12 75.73 75.56 75.83 75.12 75.26 73.67 74.45 72.33 72.37
59.16 56.24 59.62 63.20 63.91 63.50 62.53 61.24 65.39 63.48 62.15 63.61 62.74 64.98 67.19 67.36 67.04 67.18 66.79 66.75 67.93 70.32 71.84 71.13 71.06 72.08 72.90 73.40 73.43 73.66 73.76 73.76 73.36 72.98 71.01 72.58 73.01 73.59 73.89 73.83 73.39 73.86 73.11 69.85 71.14 70.24 70.94 72.20 72.57
52.34 58.97 61.33 63.12 65.10 63.29 61.37 64.03 60.98 63.18 64.78 66.55 66.13 67.31 67.04 66.23 66.43 66.84 66.72 67.73 68.79 69.94 71.10 70.79 71.29 71.97 71.98 73.02 72.88 73.08 73.22 73.44 73.15 71.76 70.06 71.73 71.42 71.62 72.38 72.50 72.89 72.82 71.90 68.70 69.85 70.91 71.16 71.68 72.24
53.42 55.63 59.88 63.86 63.61 63.58 64.70 63.56 63.70 64.16 67.54 67.47 67.22 67.36 66.42 66.28 66.37 67.35 67.41 68.04 68.92 69.56 70.09 70.09 71.01 71.31 71.15 72.24 72.29 72.54 72.75 73.15 72.67 71.37 71.46 71.15 70.43 70.42 71.72 71.52 71.74 71.95 71.85 70.33 70.57 71.35 71.49 71.74 72.33
55.67 55.86 56.58 62.58 62.32 64.68 62.69 62.49 63.93 65.81 68.16 66.80 65.93 65.64 66.28 66.11 66.37 66.82 66.84 67.03 68.15 68.99 69.41 69.52 70.50 71.23 70.98 71.38 71.76 71.96 72.14 72.78 72.83 72.43 72.01 72.16 70.66 70.49 71.26 71.01 70.81 71.30 71.02 70.57 71.66 71.25 71.05 71.76 71.86
55.38 51.17 54.84 59.98 61.85 61.80 64.77 60.49 61.30 66.24 67.29 65.17 64.75 65.10 65.92 66.18 66.80 66.70 67.29 67.25 68.19 68.62 69.38 68.50 69.89 71.01 70.66 70.82 71.54 71.78 72.07 72.78 72.53 72.05 72.00 71.91 71.45 71.26 70.85 71.43 70.94 70.93 69.78 70.21 71.31 70.99 71.30 71.41 70.35
47.39 45.74 41.21 56.47 61.40 63.43 62.12 56.23 62.64 66.51 66.34 64.62 64.49 65.05 65.12 65.12 66.21 67.39 67.80 67.65 68.25 68.12 68.27 68.60 71.20 70.92 70.57 70.33 71.39 72.06 72.01 72.48 72.63 71.74 71.18 72.40 72.01 71.19 69.30 71.19 71.19 71.00 69.63 70.89 70.86 70.22 69.53 69.27 69.11
44.90 41.22 40.97 53.99 62.10 62.29 61.69 57.62 63.12 65.87 65.49 65.16 64.29 64.43 64.95 65.04 65.46 67.26 67.93 68.09 68.48 67.99 68.12 68.19 69.92 70.18 70.49 70.37 71.31 71.69 72.21 72.21 72.26 71.88 71.65 72.16 72.20 72.28 70.50 70.39 71.16 71.03 69.43 70.32 71.60 70.58 69.41 68.95 68.92
41.11 40.29 40.27 42.97 57.31 60.08 59.34 57.25 61.86 64.49 64.85 64.75 64.69 64.36 64.87 64.96 64.35 66.86 67.51 68.25 68.62 68.12 68.37 69.06 69.69 69.87 70.13 70.70 70.96 70.91 71.78 72.16 72.64 72.47 72.26 72.11 71.21 73.84 72.09 71.75 70.96 71.22 70.10 69.76 70.84 70.17 69.50 69.55 68.89
45.22 43.19 41.90 45.22 55.19 57.51 57.48 56.43 59.47 62.85 63.46 63.26 63.77 63.99 64.53 65.02 65.78 66.86 67.28 67.75 68.37 68.14 68.24 68.44 68.53 69.00 69.64 69.37 69.72 69.72 70.22 71.46 72.29 72.38 72.77 70.96 72.14 73.29 72.72 72.40 71.77 72.00 70.90 70.85 70.88 70.23 68.73 69.54 68.81
44.96 42.99 42.10 45.50 49.09 48.21 47.48 52.01 58.85 61.08 62.26 63.30 63.30 63.26 64.07 64.89 65.05 65.64 66.01 66.39 67.49 67.81 68.14 68.30 68.83 68.93 70.00 69.22 69.89 70.65 70.04 71.29 71.75 72.35 72.57 73.92 74.13 73.48 72.22 72.59 72.16 72.05 71.05 71.51 71.12 70.80 69.47 69.81 68.53
42.60 41.24 41.95 43.28 47.20 56.83 54.70 51.46 55.63 59.83 61.96 63.64 64.20 64.50 64.36 64.56 64.62 63.71 64.77 65.72 67.59 67.71 68.04 68.49 69.09 68.89 70.31 69.43 69.82 69.80 70.39 70.69 70.75 71.69 71.84 73.08 73.79 74.19 74.12 73.27 72.10 70.93 71.55 70.66 71.00 71.03 70.64 68.12 69.03
38.70 47.07 47.13 45.08 40.67 36.82 48.55 36.43 49.58 56.73 58.20 60.59 62.81 62.60 63.85 64.33 64.92 64.04 64.08 65.52 67.20 67.95 68.90 69.16 69.50 69.00 70.16 69.20 69.33 69.73 68.78 68.68 69.91 70.60 72.23 72.95 74.55 73.42 73.21 73.45 72.34 71.06 71.85 71.25 71.46 71.63 70.66 69.79 68.47
45.39 47.80 45.76 44.26 39.49 36.28 39.93 36.53 39.70 54.88 55.59 57.98 60.62 62.83 63.19 64.77 64.43 63.87 64.36 65.72 67.65 68.63 68.58 69.27 69.42 69.18 69.68 69.57 69.18 69.02 68.87 69.27 70.83 70.99 71.89 72.47 73.65 74.03 73.27 73.56 73.51 72.38 71.97 72.38 72.84 72.12 72.05 70.95 69.95
48.49 43.40 40.68 37.57 35.93 32.95 35.87 36.19 36.04 50.08 52.29 57.31 60.26 62.08 63.68 64.48 66.09 64.67 65.42 65.97 67.66 68.67 68.87 68.96 68.39 68.34 68.62 69.49 68.45 68.31 68.70 68.81 69.22 70.53 70.39 71.22 72.30 73.44 72.96 73.32 73.16 73.43 72.79 72.13 72.44 73.39 72.32 71.97 72.92
42.59 37.56 31.39 31.29 31.07 31.75 32.94 35.62 41.44 49.13 53.15 54.71 55.20 58.89 63.50 65.17 65.97 65.33 64.31 64.63 66.81 67.70 67.95 68.50 68.20 67.70 68.30 68.86 68.49 68.00 68.61 69.27 69.49 69.77 70.39 70.28 71.41 72.44 73.14 73.16 72.85 73.33 73.25 73.02 73.24 73.54 72.83 73.09 72.89
38.25 37.13 32.77 28.33 27.92 32.20 34.97 33.88 43.08 54.14 56.13 58.26 59.86 59.60 60.05 63.83 65.96 65.96 65.21 65.27 66.15 67.47 67.65 68.18 67.93 67.99 68.26 68.60 68.56 68.02 68.18 69.20 69.37 69.84 70.55 70.85 71.53 72.36 73.76 72.90 73.20 73.81 73.67 73.45 73.15 73.18 73.22 73.68 72.95
37.47 34.05 35.77 32.53 30.17 32.79 34.58 40.85 47.10 54.85 54.56 55.87 56.22 58.36 59.22 61.31 65.27 65.96 66.69 65.67 65.82 67.16 67.58 68.21 68.23 68.37 68.72 68.89 68.68 67.78 67.57 68.23 68.92 69.99 70.43 71.08 72.05 73.00 73.46 73.36 72.42 73.70 74.06 73.18 73.59 73.14 73.35 73.79 73.76
38.22 38.41 34.35 33.18 28.83 28.13 33.02 39.38 43.32 49.77 51.83 54.62 54.68 56.15 58.54 60.70 63.42 66.04 66.84 66.69 65.95 67.14 67.90 68.36 68.89 68.58 68.87 69.38 69.20 68.56 67.89 68.10 68.74 69.65 70.21 70.97 71.69 72.33 73.16 73.39 73.26 73.15 74.08 73.32 73.07 73.14 73.01 73.07 73.02
35.04 32.94 32.50 33.31 31.78 29.81 29.90 38.69 49.86 51.45 53.29 53.06 54.47 56.70 58.69 60.93 63.32 63.86 66.08 67.19 66.54 66.89 67.58 68.12 68.68 68.62 68.77 69.38 69.62 69.50 68.69 68.18 67.97 68.72 70.35 71.58 72.24 71.88 71.84 72.63 73.18 73.16 73.49 73.73 72.72 72.99 73.00 72.61 72.92
36.84 33.24 30.53 32.12 30.25 29.99 33.83 37.66 51.84 53.18 54.34 54.98 54.26 55.97 58.55 60.10 61.41 62.65 64.83 66.30 66.94 66.35 66.96 67.29 68.69 68.70 69.03 69.23 69.85 69.57 69.78 69.50 68.69 68.30 69.16 70.47 71.34 71.98 72.05 71.91 72.65 73.63 73.39 73.66 73.22 72.77 73.66 72.78 72.55
MSLP
1011.14 1011.38 1011.86 1012.03 1011.69 1011.41 1011.18 1010.68 1010.11 1009.77 1009.90 1010.17 1010.88 1011.43 1012.20 1012.85 1013.70 1014.85 1014.53 1014.49 1014.70 1015.55 1015.77 1015.93 1016.10 1016.26 1016.53 1016.63 1016.81 1016.99 1017.09 1017.17 1017.21 1017.31 1017.37 1017.48 1017.57 1017.61 1017.70 1017.78 1017.87 1018.01 1017.98 1018.10 1018.19 1018.27 1018.29 1018.33 1018.43
1011.21 1011.55 1011.94 1011.50 1011.83 1011.38 1010.84 1010.35 1009.68 1009.33 1009.46 1010.04 1010.71 1011.12 1012.06 1013.07 1013.56 1014.31 1014.57 1014.65 1014.74 1015.47 1015.92 1016.05 1016.15 1016.29 1016.62 1016.76 1017.01 1017.17 1017.28 1017.36 1017.47 1017.55 1017.72 1017.90 1017.96 1017.95 1017.95 1018.06 1018.10 1018.19 1018.34 1018.40 1018.45 1018.61 1018.55 1018.62 1018.64
1011.26 1011.31 1011.77 1011.53 1011.67 1011.43 1011.09 1010.41 1009.65 1009.27 1009.39 1010.10 1010.74 1011.53 1012.39 1013.35 1013.70 1014.23 1014.19 1014.61 1015.03 1015.61 1016.00 1016.17 1016.30 1016.46 1016.64 1016.91 1017.17 1017.34 1017.43 1017.61 1017.79 1017.90 1018.04 1018.09 1018.07 1018.15 1018.22 1018.35 1018.43 1018.57 1018.61 1018.60 1018.81 1018.81 1018.82 1018.81 1018.91
1011.31 1011.61 1011.81 1011.67 1011.57 1011.51 1011.25 1010.61 1010.09 1009.73 1010.07 1010.49 1011.08 1012.25 1013.08 1013.17 1013.71 1013.97 1014.46 1014.67 1015.39 1015.78 1016.11 1016.22 1016.46 1016.72 1016.80 1017.01 1017.17 1017.41 1017.71 1017.89 1017.96 1018.03 1018.17 1018.16 1018.28 1018.47 1018.55 1018.65 1018.61 1018.77 1018.88 1018.95 1019.03 1019.06 1019.11 1019.13 1019.17
1011.37 1011.63 1011.72 1011.45 1011.61 1011.49 1011.17 1010.74 1010.33 1009.87 1010.33 1010.81 1011.13 1012.89 1013.88 1014.08 1013.89 1014.29 1014.67 1015.09 1015.59 1016.08 1016.28 1016.44 1016.67 1016.87 1016.98 1017.21 1017.50 1017.70 1017.87 1018.03 1018.12 1018.25 1018.36 1018.61 1018.55 1018.63 1018.80 1018.85 1018.85 1019.10 1019.18 1019.25 1019.33 1019.37 1019.36 1019.39 1019.42
1011.50 1011.69 1011.62 1011.45 1011.51 1011.35 1011.03 1011.33 1011.21 1010.64 1011.09 1011.23 1011.83 1012.67 1014.08 1014.35 1014.52 1014.81 1015.00 1015.30 1015.73 1016.21 1016.46 1016.62 1016.85 1017.03 1017.20 1017.38 1017.70 1017.86 1017.93 1018.16 1018.34 1018.47 1018.59 1018.75 1018.89 1018.90 1019.04 1019.14 1019.25 1019.28 1019.40 1019.54 1019.67 1019.70 1019.69 1019.63 1019.50
1011.51 1011.55 1011.52 1011.37 1011.40 1011.07 1011.15 1011.45 1011.17 1011.32 1011.40 1011.47 1011.56 1012.77 1014.12 1014.72 1014.88 1015.27 1015.47 1015.53 1015.88 1016.32 1016.67 1016.89 1017.09 1017.18 1017.39 1017.62 1017.74 1017.83 1018.17 1018.32 1018.51 1018.72 1018.88 1019.03 1019.19 1019.25 1019.33 1019.33 1019.41 1019.53 1019.68 1019.75 1019.87 1019.95 1019.95 1019.93 1019.87
1011.15 1011.38 1011.29 1011.19 1011.04 1010.99 1011.67 1011.98 1011.69 1011.49 1011.68 1011.15 1011.39 1012.52 1013.68 1014.51 1015.00 1015.69 1016.08 1016.23 1016.41 1016.70 1016.91 1017.16 1017.29 1017.43 1017.65 1017.73 1017.89 1018.05 1018.36 1018.49 1018.67 1018.85 1019.08 1019.23 1019.39 1019.51 1019.62 1019.60 1019.65 1019.82 1019.89 1020.01 1020.11 1020.18 1020.17 1020.27 1020.26
1010.67 1011.05 1011.22 1010.83 1010.84 1011.03 1011.50 1011.90 1012.14 1011.79 1011.36 1010.99 1011.17 1011.85 1013.12 1014.27 1014.97 1015.77 1016.34 1016.72 1017.01 1017.20 1017.37 1017.37 1017.61 1017.73 1017.81 1018.03 1018.05 1018.29 1018.45 1018.61 1018.77 1018.97 1019.19 1019.53 1019.67 1019.80 1019.95 1019.99 1019.97 1020.05 1020.13 1020.23 1020.33 1020.39 1020.46 1020.59 1020.45
1010.91 1011.08 1010.73 1010.39 1010.50 1010.74 1011.15 1011.76 1011.69 1011.41 1011.29 1011.84 1011.88 1012.71 1013.77 1014.47 1015.17 1015.79 1016.31 1016.65 1016.95 1017.31 1017.61 1017.64 1017.86 1017.96 1018.01 1018.23 1018.41 1018.63 1018.63 1018.91 1019.19 1019.46 1019.77 1019.95 1019.97 1020.03 1020.17 1020.25 1020.33 1020.42 1020.53 1020.49 1020.61 1020.79 1020.85 1021.01 1021.22
1010.72 1010.56 1010.08 1010.23 1010.23 1010.88 1011.41 1011.83 1012.15 1011.63 1011.56 1011.85 1012.23 1013.01 1013.91 1014.59 1015.25 1015.79 1016.39 1016.54 1016.67 1017.15 1017.69 1017.86 1017.94 1018.11 1018.19 1018.47 1018.72 1018.85 1018.99 1019.23 1019.45 1019.75 1020.06 1020.19 1020.23 1020.19 1020.45 1020.72 1020.92 1021.00 1021.11 1021.15 1021.11 1021.21 1021.24 1021.25 1021.39
1010.61 1009.84 1009.76 1010.15 1010.19 1010.64 1011.01 1011.39 1011.90 1011.73 1011.69 1011.61 1012.46 1013.21 1013.95 1014.73 1015.32 1015.73 1016.29 1016.75 1016.88 1017.15 1017.65 1017.91 1018.02 1018.19 1018.29 1018.57 1018.85 1018.99 1019.26 1019.50 1019.75 1020.07 1020.31 1020.35 1020.55 1020.52 1020.71 1021.04 1021.25 1021.38 1021.53 1021.55 1021.51 1021.58 1021.61 1021.58 1021.63
1010.37 1009.69 1009.38 1009.61 1009.99 1010.25 1010.79 1010.87 1011.12 1011.34 1011.48 1011.85 1012.48 1013.56 1014.13 1014.93 1015.48 1015.74 1016.21 1016.80 1017.02 1017.22 1017.50 1017.90 1017.97 1018.23 1018.40 1018.63 1018.99 1019.12 1019.37 1019.66 1019.92 1020.28 1020.50 1020.48 1020.63 1020.76 1020.87 1021.25 1021.48 1021.71 1021.76 1021.91 1021.81 1021.70 1021.70 1021.69 1021.67
1009.83 1009.61 1009.27 1009.47 1009.85 1009.95 1010.36 1010.71 1010.99 1011.24 1011.36 1011.81 1012.39 1013.24 1013.80 1014.44 1015.15 1015.76 1016.19 1016.61 1016.90 1017.19 1017.33 1017.77 1017.99 1018.17 1018.46 1018.61 1019.02 1019.18 1019.39 1019.59 1019.93 1020.26 1020.57 1020.78 1020.72 1020.88 1020.91 1021.24 1021.49 1021.72 1021.88 1022.02 1021.91 1021.87 1021.84 1021.84 1021.85
1009.53 1009.51 1009.19 1009.28 1009.72 1009.91 1010.07 1011.03 1010.52 1010.63 1011.15 1011.82 1012.59 1013.14 1013.58 1013.96 1014.76 1015.34 1015.67 1016.06 1016.44 1016.84 1017.17 1017.56 1017.83 1018.04 1018.39 1018.56 1018.87 1019.19 1019.37 1019.54 1019.80 1020.13 1020.31 1020.61 1020.87 1020.93 1021.07 1021.20 1021.55 1021.73 1021.85 1021.89 1022.02 1022.01 1022.02 1022.04 1021.93
1009.78 1009.83 1009.88 1009.94 1009.88 1009.80 1010.22 1010.11 1010.15 1010.67 1011.11 1011.71 1012.33 1012.83 1013.39 1013.83 1014.25 1014.79 1015.29 1015.92 1016.34 1016.75 1017.01 1017.40 1017.63 1017.96 1018.25 1018.50 1018.73 1019.01 1019.25 1019.43 1019.71 1020.07 1020.26 1020.52 1020.75 1021.07 1021.26 1021.31 1021.46 1021.87 1022.02 1022.11 1022.19 1022.07 1022.12 1022.17 1022.18
1010.51 1010.41 1010.31 1010.38 1010.07 1009.96 1010.30 1010.39 1010.49 1010.59 1011.23 1011.53 1012.09 1012.56 1012.91 1013.46 1014.05 1014.36 1014.75 1015.45 1015.82 1016.33 1016.83 1017.26 1017.46 1017.77 1018.07 1018.33 1018.61 1018.93 1019.18 1019.37 1019.57 1020.06 1020.18 1020.51 1020.71 1020.95 1021.26 1021.33 1021.50 1021.75 1022.05 1022.25 1022.15 1022.20 1022.33 1022.41 1022.47
1010.73 1010.66 1010.40 1010.23 1010.14 1010.29 1010.63 1010.59 1011.06 1011.19 1011.25 1011.37 1011.73 1012.29 1012.65 1013.02 1013.49 1013.92 1014.39 1014.93 1015.55 1016.15 1016.63 1017.07 1017.30 1017.65 1018.01 1018.25 1018.66 1019.01 1019.20 1019.35 1019.50 1019.84 1020.15 1020.36 1020.73 1020.73 1021.12 1021.24 1021.55 1021.79 1022.03 1022.25 1022.33 1022.43 1022.55 1022.65 1022.66
1010.30 1010.54 1010.47 1010.14 1009.92 1010.35 1010.69 1010.86 1011.25 1011.32 1011.51 1011.52 1011.69 1012.00 1012.36 1012.63 1013.09 1013.75 1014.23 1014.71 1015.45 1016.17 1016.66 1016.97 1017.34 1017.55 1018.03 1018.47 1018.87 1019.20 1019.23 1019.42 1019.54 1019.73 1020.03 1020.19 1020.57 1020.78 1020.89 1021.11 1021.33 1021.64 1021.84 1022.01 1022.34 1022.73 1022.87 1022.83 1022.79
1010.39 1010.48 1010.45 1010.16 1010.01 1010.38 1010.37 1010.99 1011.17 1011.37 1011.54 1011.64 1011.79 1011.92 1012.31 1012.68 1013.13 1013.53 1014.06 1014.69 1015.23 1015.69 1016.21 1016.73 1017.13 1017.31 1017.74 1018.15 1018.33 1018.46 1018.85 1019.25 1019.43 1019.66 1019.97 1020.09 1020.12 1020.37 1020.89 1021.04 1021.22 1021.48 1021.96 1022.21 1022.44 1022.76 1022.97 1022.97 1022.99
1010.45 1010.57 1010.53 1010.45 1010.39 1010.53 1010.86 1011.37 1011.68 1011.88 1011.69 1011.67 1011.79 1012.13 1012.35 1012.51 1012.82 1013.24 1013.74 1014.33 1014.84 1015.49 1015.93 1016.37 1016.69 1017.00 1017.53 1017.93 1018.36 1018.51 1018.79 1019.33 1019.72 1019.91 1020.05 1020.05 1020.26 1020.31 1020.65 1020.96 1021.30 1021.59 1021.75 1022.06 1022.29 1022.54 1022.63 1022.96 1023.13
1010.28 1010.11 1010.38 1010.73 1011.15 1011.31 1011.29 1011.99 1012.02 1012.10 1012.12 1011.91 1011.97 1012.08 1012.15 1012.29 1012.53 1012.85 1013.41 1013.97 1014.38 1014.77 1015.34 1015.89 1016.57 1016.81 1017.33 1017.97 1018.20 1018.33 1018.67 1019.26 1019.51 1019.64 1019.83 1019.87 1020.11 1020.44 1020.69 1020.93 1021.14 1021.42 1021.67 1021.99 1022.15 1022.13 1022.52 1022.75 1023.03
1009.89 1009.97 1010.60 1011.07 1011.59 1012.01 1011.98 1012.53 1012.20 1012.36 1012.25 1011.71 1011.88 1011.91 1011.85 1011.83 1011.94 1012.16 1012.51 1013.07 1013.67 1014.42 1014.96 1015.42 1016.26 1016.90 1017.04 1017.76 1018.18 1018.29 1018.69 1018.99 1019.21 1019.51 1019.73 1020.02 1020.11 1020.29 1020.53 1020.94 1021.15 1021.35 1021.60 1021.83 1022.01 1022.17 1022.39 1022.76 1023.00
1009.61 1010.63 1011.51 1012.27 1012.80 1013.19 1012.71 1012.97 1013.73 1013.73 1013.70 1012.60 1012.17 1011.95 1011.64 1011.25 1011.25 1011.35 1011.82 1012.53 1013.29 1013.90 1014.53 1015.30 1016.02 1016.62 1016.81 1017.31 1017.93 1018.17 1018.45 1018.91 1019.25 1019.50 1019.75 1019.99 1020.25 1020.34 1020.81 1020.88 1021.16 1021.30 1021.51 1021.76 1021.92 1022.02 1022.30 1022.55 1022.77
1010.23 1011.60 1013.11 1014.09 1014.22 1014.28 1013.42 1013.53 1014.43 1014.12 1013.93 1013.52 1012.65 1011.69 1010.79 1010.80 1011.17 1011.21 1011.21 1011.75 1012.53 1013.26 1014.03 1014.78 1015.52 1016.22 1016.77 1016.96 1017.52 1017.91 1018.05 1018.47 1018.91 1019.21 1019.52 1019.88 1020.18 1020.35 1020.63 1020.91 1021.10 1021.13 1021.31 1021.63 1021.87 1022.01 1022.29 1022.46 1022.70
1011.29 1011.91 1013.13 1014.14 1015.03 1014.70 1014.15 1014.03 1014.24 1014.22 1014.12 1013.71 1013.04 1012.15 1010.69 1009.75 1009.69 1010.08 1010.42 1010.94 1011.71 1012.48 1013.37 1014.10 1014.95 1015.65 1016.25 1016.82 1017.12 1017.48 1017.79 1018.11 1018.39 1018.78 1019.14 1019.42 1019.68 1019.83 1020.01 1020.60 1020.93 1021.03 1021.25 1021.55 1021.83 1021.97 1022.35 1022.40 1022.64
1012.31 1013.01 1013.68 1014.70 1015.67 1015.26 1014.92 1014.34 1014.23 1013.91 1013.81 1013.33 1012.90 1012.26 1011.22 1009.63 1008.81 1009.05 1009.53 1010.21 1011.08 1011.92 1012.67 1013.36 1014.13 1014.87 1015.64 1016.05 1016.69 1017.28 1017.62 1017.83 1018.06 1018.38 1018.75 1018.94 1019.18 1019.43 1019.69 1020.17 1020.65 1020.86 1021.10 1021.52 1021.77 1022.06 1022.21 1022.41 1022.63
1013.42 1014.48 1014.93 1015.43 1016.58 1016.63 1016.40 1015.91 1015.69 1014.85 1014.59 1014.15 1013.34 1012.67 1011.44 1009.45 1009.05 1009.37 1009.65 1009.95 1010.43 1011.24 1012.20 1013.01 1013.63 1014.00 1014.49 1015.34 1015.83 1016.39 1017.02 1017.39 1017.64 1018.09 1018.50 1018.73 1018.77 1019.05 1019.42 1019.84 1020.19 1020.64 1020.78 1021.17 1021.53 1021.87 1021.95 1022.23 1022.43
1015.55 1016.01 1016.57 1016.78 1017.13 1017.21 1017.55 1017.47 1016.59 1016.37 1016.11 1015.72 1015.12 1014.13 1012.89 1011.63 1010.89 1010.22 1010.10 1010.52 1011.13 1011.55 1011.91 1012.68 1013.20 1013.62 1014.24 1014.79 1015.34 1015.89 1016.49 1017.01 1017.24 1017.51 1017.84 1018.27 1018.57 1018.72 1019.14 1019.47 1019.85 1020.33 1020.47 1020.76 1021.29 1021.50 1021.75 1022.08 1022.29
1017.60 1017.88 1018.03 1018.00 1018.68 1018.27 1017.86 1018.52 1017.77 1017.27 1017.11 1016.75 1016.29 1015.46 1014.39 1013.55 1013.01 1012.49 1012.17 1011.86 1011.65 1011.72 1012.09 1012.53 1013.27 1013.57 1013.59 1014.22 1014.73 1015.20 1015.71 1016.35 1016.97 1017.20 1017.40 1017.61 1018.06 1018.35 1018.73 1019.19 1019.59 1019.95 1020.25 1020.49 1020.90 1021.19 1021.36 1021.67 1021.96
Wind_Speed
2 5 2 0 2 2 1 2 1 4 5 6 15 5 7 4 2 4 2 6 14 10 6 7 11 12 12 12 13 12 10 10 9 10 9 10 9 9 9 9 10 10 11 11 11 11 13 11 12
4 4 1 1 1 2 3 2 0 3 8 18 7 10 2 3 4 7 6 8 14 10 5 6 9 11 13 13 12 11 10 9 8 8 8 8 8 8 8 8 9 10 10 11 10 12 12 11 12
4 3 1 2 2 1 3 6 7 7 17 17 6 7 3 2 5 11 8 14 13 8 6 7 11 12 14 12 11 11 10 9 8 8 8 9 9 7 8 7 10 11 11 12 12 11 11 11 10
3 1 1 2 2 0 3 10 4 13 10 7 7 7 4 2 9 7 13 14 12 8 7 10 12 13 13 12 11 11 9 9 9 9 8 8 10 9 8 9 11 10 11 13 12 10 9 8 7
2 1 1 1 3 2 4 4 7 10 6 7 2 5 6 2 11 14 13 12 12 8 6 7 11 11 11 11 11 10 10 9 9 8 8 8 9 11 8 9 11 12 11 11 11 10 8 7 4
1 0 1 2 1 2 2 9 7 3 6 8 8 7 4 9 14 11 11 11 10 9 6 5 11 11 10 9 10 10 11 10 9 7 8 8 8 9 9 9 10 11 11 10 10 9 9 8 10
1 1 1 1 3 3 1 5 7 8 7 4 6 5 7 8 11 9 9 11 10 7 6 5 5 8 11 11 12 11 10 11 9 9 8 8 8 9 8 10 10 12 11 10 11 10 9 10 11
1 2 3 1 3 1 4 3 5 6 3 6 10 6 9 10 13 10 9 8 8 6 5 5 5 5 5 5 10 10 9 9 10 8 8 8 8 7 7 7 9 11 10 10 10 9 8 9 9
2 1 2 2 5 2 5 5 6 11 7 2 2 7 14 17 15 12 11 9 8 6 5 5 5 5 4 3 6 9 9 10 9 7 7 6 3 4 5 4 8 9 10 10 9 9 9 10 8
1 2 3 0 6 9 9 7 6 1 6 8 14 19 18 17 15 15 14 11 13 11 5 5 5 5 4 2 4 3 3 3 4 4 5 3 4 3 3 3 8 9 11 10 11 9 10 7 4
4 3 3 4 7 12 11 7 3 4 0 4 18 20 19 17 14 13 11 11 11 12 5 5 5 4 5 3 2 1 2 2 2 4 4 3 2 2 3 2 3 3 6 2 4 4 3 4 4
2 7 3 7 11 11 11 12 7 6 4 12 16 18 15 16 14 13 11 9 10 12 7 6 6 5 4 3 2 2 2 2 2 2 3 3 2 1 3 2 3 2 2 3 3 2 2 3 3
3 5 5 8 15 10 10 8 6 10 6 12 18 17 16 12 11 10 9 7 7 9 7 7 6 5 4 4 3 2 2 2 2 2 2 2 3 2 2 3 2 2 2 2 2 1 2 2 2
4 6 5 8 9 10 13 6 8 7 9 16 19 17 16 14 12 8 9 8 8 6 7 7 7 6 5 4 4 3 2 3 2 3 2 2 1 3 2 3 2 3 2 1 1 0 2 1 2
2 3 1 3 9 6 6 6 6 12 10 19 17 16 16 15 13 11 11 11 12 8 6 8 7 7 6 5 5 3 3 3 2 2 3 4 3 2 3 2 2 1 1 2 2 1 1 1 2
4 4 2 2 6 2 4 2 8 9 14 17 19 18 15 15 15 12 11 8 8 7 8 8 9 8 7 6 5 3 3 3 3 2 3 4 4 3 3 3 2 3 3 2 2 2 2 2 3
6 3 3 2 7 4 6 1 4 7 10 15 18 18 16 14 15 14 12 11 11 9 8 8 7 8 7 5 4 4 4 3 3 3 3 4 3 5 4 3 2 3 3 2 2 2 2 2 1
2 4 2 3 7 4 5 8 4 6 10 13 17 18 17 17 15 15 14 13 11 9 7 9 8 7 6 3 2 2 3 2 2 2 2 4 3 4 4 3 4 4 3 2 2 2 1 1 0
4 4 0 2 4 4 9 7 8 7 7 11 12 17 16 17 13 13 13 13 12 8 7 8 8 7 6 2 3 2 3 2 1 3 4 4 4 5 4 3 4 3 3 3 2 1 2 2 2
2 3 2 3 1 7 3 3 4 9 2 9 12 13 16 14 12 13 13 12 13 14 13 9 9 7 8 4 2 3 3 2 2 2 2 3 2 3 5 4 3 3 3 3 4 3 2 0 1
2 4 3 4 3 2 2 4 3 2 3 4 6 8 7 14 16 12 13 14 14 13 13 12 12 10 8 6 4 3 4 3 2 2 2 3 3 3 4 4 4 4 3 3 3 3 3 2 1
2 8 5 2 2 2 2 4 1 3 5 5 4 6 8 9 11 12 14 14 15 15 13 13 11 10 8 7 5 6 5 4 3 3 3 3 3 4 3 3 3 4 3 4 3 2 2 2 1
8 6 7 5 3 2 2 5 6 1 7 11 10 7 9 7 10 16 18 18 16 14 14 13 11 9 9 9 7 5 5 3 2 2 3 3 2 2 3 3 3 4 3 3 3 2 2 1 2
4 6 8 6 4 3 2 5 6 5 7 8 3 8 10 13 11 15 16 15 15 14 13 11 11 10 8 11 8 8 9 6 4 3 3 3 2 2 3 3 3 3 4 4 3 2 2 2 2
6 7 3 4 3 6 5 5 1 7 6 6 8 8 15 14 14 10 17 17 16 17 16 13 12 11 9 12 10 8 9 9 8 6 4 4 3 2 4 4 4 3 3 4 3 3 3 3 2
2 6 7 6 6 5 2 5 5 5 6 10 8 9 12 17 17 17 16 18 18 18 17 17 15 13 11 10 11 8 8 6 6 6 4 4 5 4 5 5 4 4 4 3 3 2 2 2 3
1 5 2 8 3 4 2 4 2 15 16 18 18 14 16 13 19 19 17 17 17 18 19 18 16 15 12 13 9 7 7 7 8 7 5 4 4 4 4 5 6 6 4 4 4 3 3 3 2
8 1 4 4 5 3 4 3 3 17 20 20 22 22 21 9 11 12 12 14 15 17 16 16 15 18 16 15 12 11 11 8 7 6 7 6 6 5 5 6 6 5 6 5 4 4 3 3 2
7 6 5 5 3 6 5 3 6 9 13 16 16 17 19 19 15 2 3 7 5 7 13 14 15 16 14 14 12 10 9 9 8 9 9 7 5 6 6 7 7 7 7 6 5 5 4 5 4
5 2 3 5 3 2 4 1 6 10 12 13 15 15 17 19 18 17 15 10 4 5 6 10 11 13 13 12 12 12 10 9 9 9 9 9 9 5 6 6 7 7 7 7 8 7 6 6 6
Wind_Direction
166 121 140 198 270 176 231 280 188 121 123 149 149 141 178 78 181 191 114 158 125 136 156 149 153 152 141 135 137 133 127 123 121 120 124 115 112 112 113 105 109 107 100 92 93 95 91 95 100
145 142 222 273 297 32 309 228 71 209 134 136 167 125 102 102 97 118 114 153 127 133 136 128 144 153 146 137 134 130 125 123 119 117 119 120 106 108 115 117 119 119 105 105 98 100 99 99 100
145 262 360 40 30 306 310 36 321 120 132 154 108 41 43 66 105 140 135 132 122 120 125 140 138 146 144 140 141 137 139 129 138 127 129 126 117 119 117 121 118 109 116 110 102 98 102 98 90
157 337 313 199 196 63 285 311 223 117 104 57 106 72 63 107 133 136 136 125 119 120 125 139 137 137 146 150 149 144 138 135 135 140 124 123 120 115 114 112 121 106 104 107 103 104 103 99 84
358 92 267 352 81 32 327 333 237 131 88 98 126 89 104 27 110 127 130 125 124 118 128 135 138 140 148 153 149 145 147 142 133 134 118 122 122 121 116 102 107 100 99 99 106 106 94 81 103
76 92 5 33 94 335 12 22 342 327 73 123 97 109 120 130 125 138 127 123 123 127 127 148 151 156 162 160 153 152 149 143 134 123 124 121 106 106 108 112 107 112 109 105 102 102 92 78 98
102 15 28 177 172 293 103 17 354 344 111 112 135 92 115 141 131 126 120 119 118 120 127 127 133 151 153 154 152 154 150 141 141 135 132 116 113 113 117 116 107 102 105 104 104 103 90 89 110
187 121 323 260 194 244 94 99 338 351 1 114 151 153 159 157 127 114 108 105 104 106 118 120 122 114 111 159 148 147 147 153 141 138 136 128 121 124 118 99 103 103 105 105 107 103 95 90 103
275 1 290 247 167 106 84 77 342 281 180 82 142 140 132 136 124 119 123 121 118 120 122 120 113 113 115 120 153 145 153 145 145 143 134 99 66 81 81 111 106 103 103 111 114 103 95 62 88
136 131 220 223 128 146 137 107 276 95 156 59 89 112 131 134 137 142 151 152 156 160 150 137 136 139 136 102 96 110 141 90 92 80 78 75 90 100 112 125 117 110 96 104 102 90 82 64 43
198 218 213 106 117 140 145 137 100 298 103 161 141 142 144 144 150 149 157 164 163 167 166 159 148 155 156 118 127 117 103 109 100 107 102 114 89 73 89 56 49 59 94 65 82 68 65 65 60
228 234 259 131 147 152 162 138 161 205 77 143 150 148 146 152 159 158 159 162 164 167 173 164 152 167 159 132 156 148 136 133 116 131 143 131 116 112 110 96 96 81 69 64 72 75 67 60 41
204 277 210 153 163 162 160 180 175 197 151 141 143 152 150 157 166 167 159 157 162 170 165 172 160 164 175 150 155 171 167 148 141 126 136 141 145 154 127 113 117 110 110 57 68 81 86 57 16
216 229 247 166 172 156 174 176 169 182 171 157 153 161 161 163 174 152 158 164 173 172 175 159 173 163 180 167 163 193 176 176 166 162 162 214 176 158 184 146 149 127 122 105 110 3 69 9 355
251 302 355 144 163 175 157 150 221 160 178 156 159 164 169 169 166 176 175 174 177 182 171 164 172 164 182 186 172 184 196 185 212 193 172 172 196 194 180 197 149 121 108 109 97 86 89 77 54
35 63 44 341 153 220 159 216 193 138 169 167 170 174 169 172 174 178 181 170 170 172 180 165 181 174 178 187 180 182 207 200 196 179 173 187 189 173 193 193 161 156 102 103 91 48 46 51 53
18 119 76 100 216 149 213 331 167 176 175 166 174 176 179 179 181 183 183 173 179 182 171 174 175 172 185 185 184 188 200 224 197 158 186 168 205 179 176 202 163 166 130 114 74 40 51 11 16
176 90 3 121 213 233 177 257 148 191 179 174 174 177 180 188 188 184 185 182 175 176 184 185 177 169 170 152 134 146 162 220 195 171 187 195 183 210 179 176 154 159 154 154 106 66 359 306 294
119 104 2 290 193 183 210 248 188 186 181 174 179 180 185 192 186 185 189 182 177 163 175 192 173 171 148 142 138 143 174 170 183 166 188 207 186 167 163 163 149 161 141 130 126 118 214 291 45
120 102 287 290 282 189 347 327 164 173 186 183 187 189 189 185 186 192 189 186 184 181 182 190 196 179 172 161 166 155 142 134 120 124 187 223 208 143 145 157 165 175 144 158 177 190 161 266 142
114 159 198 211 21 19 72 356 114 134 120 159 207 194 191 189 194 192 188 189 188 190 183 191 197 184 183 164 130 81 81 70 76 136 185 200 185 170 152 164 156 154 158 161 166 191 140 167 60
183 208 184 220 90 228 125 284 360 170 212 221 218 180 201 188 189 190 191 194 192 198 192 188 197 187 176 163 169 151 158 149 189 181 163 182 190 160 153 173 176 163 154 160 186 167 144 143 95
216 157 176 177 166 83 320 77 267 166 218 224 215 205 199 204 185 196 191 195 194 189 190 191 191 196 171 177 185 157 150 148 146 149 176 161 201 192 180 164 190 167 169 180 186 181 147 127 140
108 75 42 50 88 48 231 123 351 10 324 336 230 227 226 210 201 194 197 187 194 191 183 185 181 201 174 177 183 179 168 160 152 160 181 188 184 178 194 195 206 206 175 175 194 193 190 149 110
88 80 25 34 45 200 4 67 215 306 350 357 324 282 218 209 218 199 189 190 191 189 187 184 182 193 191 182 184 192 182 166 175 177 181 173 171 190 213 176 199 210 199 188 174 178 194 180 147
84 149 151 167 172 192 62 170 189 25 6 348 345 304 289 218 197 198 196 193 191 191 188 187 187 197 184 190 197 190 183 184 178 177 177 189 194 197 170 182 201 209 197 208 196 187 210 211 196
215 65 187 105 4 82 221 330 48 3 7 5 1 356 339 268 212 202 190 192 187 191 192 190 187 194 192 191 186 188 188 183 190 187 179 187 186 185 184 182 189 190 200 196 191 213 227 213 215
88 13 65 9 129 155 32 48 318 1 359 355 1 4 356 324 225 204 203 193 188 193 194 193 195 192 192 194 190 190 194 195 191 176 190 190 199 192 178 194 197 195 191 202 198 201 221 228 231
3 9 23 110 93 148 133 297 9 1 9 3 360 11 15 22 22 11 176 161 182 183 190 197 198 193 194 194 197 192 188 192 187 193 194 193 194 198 192 192 198 201 196 193 200 214 208 215 238
42 58 112 120 219 54 119 166 6 26 13 8 20 19 29 33 33 34 33 31 71 168 179 191 201 202 199 200 196 198 189 185 195 201 203 186 195 192 200 191 192 197 204 194 204 218 216 213 222